Location: ?astrovice
(49.6513°N, 14.9287°E)
Time: 02:22:41
(UTC+00:00)

X-37B - Pass Details

Date: 05 August 2021
Orbit: 381 x 393 km, 45.0° (Epoch: 29 August)

Event Time Altitude Azimuth Distance (km) Brightness Sun altitude
Exits shadow 02:52:46 - 237° (WSW) 1,453 2.8 -6.8°
Reaches altitude 10° 02:52:55 10° 236° (SW) 1,396 2.7 -6.8°
Maximum altitude 02:55:44 31° 171° (S) 692 1.6 -6.4°
Drops below altitude 10° 02:58:35 10° 107° (ESE) 1,399 4.0 -6.1°
Sets 03:00:46 0° 97° (E) 2,253 5.3 -5.8°
